| time (UTC) | temp C | wind direction | speed KPH | gust KPH | rain 1hr cm | rain 24hr cm | rain mn cm | humidity % | barometer mb |
| 20260509180012 | 16 | 217 | 1.6 | 11.3 | 0.00 | 0.00 | 0.00 | 51 | 1019.8 |
| 20260509174510 | 16 | 252 | 3.2 | 8.0 | 0.00 | 0.00 | 0.00 | 54 | 1019.9 |
| 20260509173009 | 16 | 287 | 3.2 | 9.7 | 0.00 | 0.00 | 0.00 | 58 | 1020.0 |
| 20260509171507 | 16 | 258 | 3.2 | 12.9 | 0.00 | 0.00 | 0.00 | 61 | 1020.1 |
| 20260509170005 | 15 | 246 | 4.8 | 11.3 | 0.00 | 0.00 | 0.00 | 54 | 1020.1 |
| 20260509164502 | 14 | 297 | 0.0 | 8.0 | 0.00 | 0.00 | 0.00 | 58 | 1020.1 |
| 20260509163104 | 13 | 286 | 3.2 | 8.0 | 0.00 | 0.00 | 0.00 | 59 | 1020.1 |
| 20260509161604 | 13 | 267 | 4.8 | 8.0 | 0.00 | 0.00 | 0.00 | 62 | 1020.1 |
| 20260509160056 | 13 | 297 | 6.4 | 11.3 | 0.00 | 0.00 | 0.00 | 63 | 1020.3 |
| 20260509154553 | 12 | 261 | 6.4 | 9.7 | 0.00 | 0.00 | 0.00 | 65 | 1020.4 |
| 20260509153058 | 12 | 280 | 4.8 | 11.3 | 0.00 | 0.00 | 0.00 | 69 | 1020.3 |
| 20260509151546 | 12 | 264 | 6.4 | 12.9 | 0.00 | 0.00 | 0.00 | 69 | 1020.3 |
| 20260509150045 | 12 | 234 | 4.8 | 11.3 | 0.00 | 0.00 | 0.00 | 68 | 1020.4 |
| 20260509144547 | 11 | 253 | 6.4 | 11.3 | 0.00 | 0.00 | 0.00 | 70 | 1020.4 |
| 20260509143042 | 11 | 254 | 4.8 | 11.3 | 0.00 | 0.00 | 0.00 | 70 | 1020.2 |
| 20260509141542 | 11 | 213 | 1.6 | 4.8 | 0.00 | 0.00 | 0.00 | 68 | 1020.1 |
| 20260509140045 | 10 | 117 | 0.0 | 4.8 | 0.00 | 0.00 | 0.00 | 72 | 1019.9 |
| 20260509134530 | 9 | 126 | 1.6 | 6.4 | 0.00 | 0.00 | 0.00 | 75 | 1019.8 |
| 20260509133028 | 8 | 85 | 3.2 | 8.0 | 0.00 | 0.00 | 0.00 | 78 | 1019.7 |
| 20260509131528 | 6 | 114 | 0.0 | 4.8 | 0.00 | 0.00 | 0.00 | 82 | 1019.6 |
| 20260509130027 | 6 | 108 | 6.4 | 11.3 | 0.00 | 0.00 | 0.00 | 83 | 1019.5 |
| 20260509124524 | 6 | 123 | 1.6 | 6.4 | 0.00 | 0.00 | 0.00 | 83 | 1019.6 |
| 20260509123023 | 6 | 114 | 6.4 | 11.3 | 0.00 | 0.00 | 0.00 | 80 | 1019.6 |
| 20260509121521 | 6 | 128 | 6.4 | 9.7 | 0.00 | 0.00 | 0.00 | 81 | 1019.8 |
| 20260509120022 | 6 | 130 | 6.4 | 9.7 | 0.00 | 0.00 | 0.00 | 81 | 1019.8 |
| 20260509114520 | 6 | 129 | 4.8 | 9.7 | 0.00 | 0.00 | 0.00 | 81 | 1019.7 |
| 20260509113018 | 6 | 124 | 8.0 | 9.7 | 0.00 | 0.00 | 0.00 | 82 | 1019.8 |
| 20260509111516 | 6 | 137 | 6.4 | 8.0 | 0.00 | 0.00 | 0.00 | 82 | 1019.7 |
| 20260509110013 | 7 | 132 | 4.8 | 8.0 | 0.00 | 0.00 | 0.00 | 79 | 1019.8 |
| 20260509104514 | 6 | 137 | 3.2 | 8.0 | 0.00 | 0.00 | 0.00 | 80 | 1019.7 |
| 20260509103012 | 7 | 136 | 3.2 | 9.7 | 0.00 | 0.00 | 0.00 | 79 | 1019.9 |
| 20260509101513 | 7 | 196 | 3.2 | 8.0 | 0.00 | 0.00 | 0.00 | 76 | 1019.8 |
| 20260509100011 | 8 | 213 | 4.8 | 11.3 | 0.00 | 0.00 | 0.00 | 77 | 1019.9 |
| 20260509094512 | 7 | 223 | 6.4 | 14.5 | 0.00 | 0.00 | 0.00 | 77 | 1019.8 |
| 20260509093009 | 7 | 130 | 1.6 | 6.4 | 0.00 | 0.00 | 0.00 | 79 | 1019.9 |
| 20260509091510 | 7 | 122 | 1.6 | 6.4 | 0.00 | 0.00 | 0.00 | 80 | 1019.9 |
| 20260509090005 | 7 | 128 | 8.0 | 9.7 | 0.00 | 0.00 | 0.00 | 79 | 1019.8 |
| 20260509084503 | 8 | 112 | 3.2 | 12.9 | 0.00 | 0.00 | 0.00 | 76 | 1019.7 |
| 20260509083001 | 8 | 125 | 3.2 | 9.7 | 0.00 | 0.00 | 0.00 | 75 | 1019.8 |
| 20260509081600 | 8 | 229 | 4.8 | 16.1 | 0.00 | 0.00 | 0.00 | 74 | 1019.5 |
| 20260509081502 | 8 | 227 | 4.8 | 17.7 | 0.00 | 0.00 | 0.00 | 74 | 1019.5 |
| 20260509080059 | 7 | 147 | 3.2 | 8.0 | 0.00 | 0.00 | 0.00 | 76 | 1019.6 |
| 20260509074611 | 8 | 121 | 3.2 | 9.7 | 0.00 | 0.00 | 0.00 | 75 | 1019.6 |
| 20260509073106 | 8 | 204 | 4.8 | 9.7 | 0.00 | 0.00 | 0.00 | 74 | 1019.6 |
| 20260509071556 | 9 | 237 | 3.2 | 14.5 | 0.00 | 0.00 | 0.00 | 72 | 1019.6 |
| 20260509070048 | 9 | 229 | 8.0 | 20.9 | 0.00 | 0.00 | 0.00 | 71 | 1019.4 |
| 20260509064545 | 10 | 215 | 3.2 | 8.0 | 0.00 | 0.00 | 0.00 | 69 | 1019.5 |
| 20260509063055 | 10 | 244 | 9.7 | 19.3 | 0.00 | 0.00 | 0.00 | 67 | 1019.3 |
| 20260509061541 | 9 | 146 | 3.2 | 8.0 | 0.00 | 0.00 | 0.00 | 69 | 1019.3 |
| 20260509060059 | 10 | 196 | 3.2 | 9.7 | 0.00 | 0.00 | 0.00 | 67 | 1019.0 |
| 20260509054538 | 10 | 244 | 9.7 | 17.7 | 0.00 | 0.00 | 0.00 | 66 | 1019.0 |
| 20260509053051 | 11 | 227 | 6.4 | 12.9 | 0.00 | 0.00 | 0.00 | 64 | 1019.2 |
| 20260509051534 | 10 | 230 | 8.0 | 19.3 | 0.00 | 0.00 | 0.00 | 64 | 1018.9 |
| 20260509050034 | 10 | 270 | 4.8 | 12.9 | 0.00 | 0.00 | 0.00 | 63 | 1018.9 |
| 20260509044532 | 11 | 229 | 6.4 | 11.3 | 0.00 | 0.00 | 0.00 | 61 | 1018.6 |
| 20260509043040 | 11 | 241 | 4.8 | 14.5 | 0.00 | 0.00 | 0.00 | 59 | 1018.6 |
| 20260509041527 | 12 | 251 | 12.9 | 29.0 | 0.00 | 0.00 | 0.00 | 57 | 1018.4 |
| 20260509040026 | 12 | 257 | 16.1 | 27.4 | 0.00 | 0.00 | 0.00 | 56 | 1017.8 |
| 20260509034524 | 12 | 246 | 11.3 | 24.1 | 0.00 | 0.00 | 0.00 | 55 | 1017.8 |
| 20260509033022 | 12 | 268 | 16.1 | 27.4 | 0.00 | 0.00 | 0.00 | 53 | 1017.7 |
| 20260509031519 | 12 | 230 | 14.5 | 22.5 | 0.00 | 0.00 | 0.00 | 52 | 1017.4 |
| 20260509030017 | 13 | 268 | 17.7 | 30.6 | 0.00 | 0.00 | 0.00 | 50 | 1017.1 |
| 20260509024516 | 13 | 256 | 19.3 | 29.0 | 0.00 | 0.00 | 0.00 | 48 | 1016.8 |
| 20260509023015 | 15 | 246 | 17.7 | 30.6 | 0.00 | 0.00 | 0.00 | 47 | 1016.6 |
| 20260509021512 | 15 | 258 | 25.7 | 38.6 | 0.00 | 0.00 | 0.00 | 45 | 1016.3 |
| 20260509020011 | 15 | 263 | 25.7 | 38.6 | 0.00 | 0.00 | 0.00 | 44 | 1016.2 |
| 20260509014520 | 16 | 273 | 27.4 | 41.8 | 0.00 | 0.00 | 0.00 | 41 | 1016.0 |
| 20260509013010 | 16 | 272 | 27.4 | 40.2 | 0.00 | 0.00 | 0.00 | 40 | 1016.1 |
| 20260509011508 | 17 | 268 | 25.7 | 35.4 | 0.00 | 0.00 | 0.00 | 39 | 1016.0 |
| 20260509010008 | 17 | 250 | 24.1 | 40.2 | 0.00 | 0.00 | 0.00 | 39 | 1016.2 |
| 20260509004509 | 17 | 272 | 24.1 | 37.0 | 0.00 | 0.00 | 0.00 | 34 | 1016.0 |
| 20260509003007 | 17 | 263 | 22.5 | 37.0 | 0.00 | 0.00 | 0.00 | 34 | 1015.9 |
| 20260509001508 | 17 | 263 | 22.5 | 35.4 | 0.00 | 0.00 | 0.00 | 33 | 1016.0 |
| 20260509000005 | 18 | 277 | 22.5 | 32.2 | 0.00 | 0.00 | 0.00 | 33 | 1015.8 |
| 20260508234504 | 18 | 257 | 22.5 | 33.8 | 0.00 | 0.00 | 0.00 | 33 | 1015.8 |
| 20260508233004 | 18 | 249 | 20.9 | 33.8 | 0.00 | 0.00 | 0.00 | 36 | 1015.8 |
| 20260508231503 | 19 | 264 | 16.1 | 37.0 | 0.00 | 0.00 | 0.00 | 37 | 1016.0 |
| 20260508230004 | 19 | 275 | 19.3 | 32.2 | 0.00 | 0.00 | 0.00 | 30 | 1016.0 |
| 20260508224507 | 18 | 288 | 16.1 | 27.4 | 0.00 | 0.00 | 0.00 | 31 | 1016.0 |
| 20260508223002 | 18 | 261 | 17.7 | 29.0 | 0.00 | 0.00 | 0.00 | 29 | 1015.8 |
| 20260508221600 | 18 | 261 | 19.3 | 35.4 | 0.00 | 0.00 | 0.00 | 28 | 1015.7 |
| 20260508220058 | 19 | 260 | 22.5 | 40.2 | 0.00 | 0.00 | 0.00 | 32 | 1015.8 |
| 20260508214556 | 18 | 258 | 24.1 | 38.6 | 0.00 | 0.00 | 0.00 | 37 | 1015.7 |
| 20260508213058 | 18 | 242 | 20.9 | 33.8 | 0.00 | 0.00 | 0.00 | 40 | 1015.7 |
| 20260508211555 | 18 | 301 | 20.9 | 30.6 | 0.00 | 0.00 | 0.00 | 38 | 1015.6 |
| 20260508210054 | 18 | 274 | 20.9 | 29.0 | 0.00 | 0.00 | 0.00 | 37 | 1015.6 |
| 20260508204553 | 18 | 281 | 17.7 | 24.1 | 0.00 | 0.00 | 0.00 | 34 | 1015.5 |
| 20260508203051 | 17 | 257 | 20.9 | 32.2 | 0.00 | 0.00 | 0.00 | 41 | 1015.6 |
| 20260508201551 | 17 | 250 | 19.3 | 29.0 | 0.00 | 0.00 | 0.00 | 42 | 1015.6 |
| 20260508200050 | 17 | 257 | 20.9 | 30.6 | 0.00 | 0.00 | 0.00 | 48 | 1015.5 |
| 20260508194602 | 17 | 277 | 17.7 | 27.4 | 0.00 | 0.00 | 0.00 | 49 | 1015.3 |
| 20260508193105 | 17 | 251 | 12.9 | 27.4 | 0.00 | 0.00 | 0.00 | 48 | 1015.0 |
| 20260508191557 | 17 | 285 | 16.1 | 24.1 | 0.00 | 0.00 | 0.00 | 50 | 1015.0 |
| 20260508190103 | 18 | 268 | 22.5 | 32.2 | 0.00 | 0.00 | 0.00 | 46 | 1014.9 |
| 20260508184544 | 18 | 282 | 14.5 | 24.1 | 0.00 | 0.00 | 0.00 | 45 | 1015.0 |
| 20260508183044 | 18 | 247 | 16.1 | 25.7 | 0.00 | 0.00 | 0.00 | 43 | 1015.2 |
| 20260508181545 | 17 | 263 | 11.3 | 24.1 | 0.00 | 0.00 | 0.00 | 52 | 1015.2 |